Miscellaneous Local Product
Issued by NWS North Platte, NE

Home | Current Version | Previous Version | Graphics & Text | Print | Product List | Glossary On
Versions: 1 2 3 4 5 6 7 8 9 10 11 12 13 14 15 16 17 18 19 20 21 22 23 24 25 26 27 28 29 30 31 32 33 34 35 36 37 38 39 40 41 42 43 44 45 46 47 48 49 50
000
AXUS43 KLBF 012210
MISLBF


WESTERN AND NORTH CENTRAL NEBRASKA HOURLY WEATHER ROUNDUP
NATIONAL WEATHER SERVICE NORTH PLATTE NE
500 PM CDT SAT AUG 01 2015

***STATIONS NOT REPORTING VARIABLES SUCH AS SKY/WEATHER OR
PRESSURE ARE PROVIDED BY THE NEBRASKA DEPARTMENT OF
ROADS...RAWS...AND APRS NETWORKS...AND ARE NOT UNDER
NATIONAL WEATHER SERVICE QUALITY CONTROL***

...OBSERVATIONS IN AND NEAR THE EASTERN PANHANDLE OF NEBRASKA...

CITY           SKY/WX    TMP DP  RH WIND       PRES   REMARKS
PINE RIDGE     SUNNY     88  63  43 SE15      29.98F
CHADRON        CLOUDY    91  62  37 SE20G29   29.94F HX  91
ALLIANCE       PTSUNNY   74  62  66 S22G30    30.01F THUNDER
SIDNEY         MOSUNNY   89  52  28 S15G28    30.02F
BIG SPRINGS      N/A     90  67  46 E12         N/A  HX  93
$$

...OBSERVATIONS IN NORTH CENTRAL NEBRASKA...

CITY           SKY/WX    TMP DP  RH WIND       PRES   REMARKS
VALENTINE      SUNNY     83  57  41 S25G32    29.96F
THEDFORD       MOSUNNY   78  59  52 S18       30.02F
AINSWORTH      SUNNY     83  56  39 S18G25    29.97S
O`NEILL        SUNNY     88  55  33 SW16      29.93F
ORD            PTSUNNY   81  59  47 S12       29.96F
BROKEN BOW     PTSUNNY   80  52  37 S14G29    30.00F
SPRINGVIEW       N/A     85  61  44 SW10G17     N/A
CHAMBERS         N/A     85  56  37 S15         N/A
EWING            N/A     86  69  56 S5          N/A  HX  90
$$

...OBSERVATIONS IN SOUTHWEST NEBRASKA AND FAR NORTHEAST COLORADO...

CITY           SKY/WX    TMP DP  RH WIND       PRES   REMARKS
WRAY           FAIR      95  46  18 SE16G22   30.02F HX  91
IMPERIAL       SUNNY     93  50  23 S17       30.00F HX  90
OGALLALA       SUNNY     88  64  45 SE13G23   30.00F
NORTH PLATTE   SUNNY     82  60  47 SE15G26   30.01F
MCCOOK         MOSUNNY   90  59  35 SE13      29.99F
LEXINGTON      SUNNY     85  59  40 E14G20    30.03F
PAXTON           N/A     84  67  57 E8          N/A
BRADY            N/A     82  61  48 NE5G12      N/A
CALLAWAY         N/A     80  66  62 SE14        N/A
$$

...NORTH PLATTE AREA...

CITY           SKY/WX    TMP DP  RH WIND       PRES   REMARKS
AIRPORT        SUNNY     82  60  47 SE15G26   30.01F
DOWNTOWN         N/A     84  62  46 SE5G13      N/A
HILLCREST        N/A     83  60  45 SE18G26     N/A
$$

...SOME WEATHER OBSERVATIONS FROM AROUND THE REGION...

CITY           SKY/WX    TMP DP  RH WIND       PRES   REMARKS
DENVER         PTSUNNY   93  33  12 N8        30.07F
LARAMIE        MOSUNNY   84  31  14 SE7       30.23F
CHEYENNE       MOSUNNY   86  41  20 E10G20    30.15F
SCOTTSBLUFF    MOSUNNY   94  49  21 NE13      29.98F HX  90
RAPID CITY     SUNNY     91  52  26 VRB5      29.95F
PIERRE         SUNNY     93  60  33 SW17G28   29.82F HX  93
WINNER         FAIR      92  58  31 SW20G28   29.90F HX  91
SIOUX FALLS    MOSUNNY   83  62  49 SW10      29.89F
OMAHA          CLOUDY    83  67  58 S9        29.94F
GRAND ISLAND   PTSUNNY   80  60  50 S7        30.00F
KANSAS CITY    MOSUNNY   90  70  51 W6        29.97F HX  95
WICHITA        MOSUNNY   90  70  51 S9        29.98F HX  95
HAYS           SUNNY     93  61  33 SE12G17   29.98F HX  93
LIBERAL        SUNNY     90  66  45 S12       30.01F HX  92
GOODLAND       SUNNY     89  50  26 SE14G28   30.04F
$$



USA.gov is the U.S. government's official web portal to all federal, state and local government web resources and services.